Regional Weather Roundup
Issued by NWS

Home | Current Version | Previous Version | Graphics & Text | Print | Product List | Glossary On
Versions: 1 2 3 4 5 6 7 8 9 10 11 12 13 14 15 16 17 18 19 20 21 22 23 24 25 26 27 28 29 30 31 32 33 34 35 36 37 38 39 40 41 42 43 44 45 46 47 48 49 50
000
ASUS43 KMPX 270310
RWRMN
WEATHER ROUNDUP FOR MINNESOTA
NATIONAL WEATHER SERVICE TWIN CITIES/CHANHASSEN MN
1000 PM CDT SAT MAY 26 2018


NOTE: "FAIR" INDICATES FEW OR NO CLOUDS BELOW 12,000 FEET WITH NO
SIGNIFICANT WEATHER AND/OR OBSTRUCTIONS TO VISIBILITY. N/A MEANS
CURRENT SKY AND/OR WEATHER CONDITIONS ARE NOT AVAILABLE.

MNZ060>063-068>070-270400-
   Twin Cities Metro

CITY           SKY/WX    TMP DP  RH WIND       PRES   REMARKS
TWIN CITIES    FAIR      83  58  42 CALM      29.73R
ST PAUL        FAIR      76  59  55 S3        29.72R
CRYSTAL        FAIR      77  56  48 CALM      29.72R
BLAINE         FAIR      75  55  50 CALM      29.73R
LAKEVILLE      FAIR      70  63  78 CALM      29.74R
EDEN PRAIRIE   FAIR      80  56  43 CALM      29.72R
SOUTH ST PAUL  FAIR      78  59  52 CALM      29.72R
LAKE ELMO      FAIR      72  63  73 CALM      29.74R
$$
MNZ001>005-007-008-013>017-022>024-027-028-270400-
   Northwest Minnesota

CITY           SKY/WX    TMP DP  RH WIND       PRES   REMARKS
BEMIDJI        FAIR      66  58  76 CALM      29.75R
HALLOCK        FAIR      73  57  56 NE3       29.72R
ROSEAU         FAIR      70  61  73 CALM      29.73R
WARROAD        FAIR      68  63  83 CALM      29.73R
THIEF RVR FALL FAIR      74  59  59 NE5       29.74R
CROOKSTON      FAIR      79  55  44 E5        29.72R
FOSSTON        FAIR      70  43  37 CALM      29.75R
DETROIT LAKES  FAIR      77  46  33 CALM      29.76R
MOORHEAD       FAIR      75  46  35 CALM      29.72R
PARK RAPIDS    FAIR      74  54  49 CALM      29.74R
MAHNOMEN       FAIR      72  53  51 NE3       29.73R
$$
MNZ006-009>011-018-025>026-270400-
   North Central Minnesota

CITY           SKY/WX    TMP DP  RH WIND       PRES   REMARKS
BAUDETTE         N/A    N/A N/A N/A MISG      29.72R
FLAG ISLAND    FAIR      70  63  78 CALM      29.72R
INTL FALLS     FAIR      62  59  90 CALM      29.73R
WASKISH        FAIR      64  61  88 CALM      29.74R
BIG FORK       FAIR      64  59  82 CALM      29.75R
LONGVILLE      FAIR      64  57  77 CALM      29.75R
GRAND RAPIDS   FAIR      65  59  81 CALM      29.77R
CRANE LAKE     FAIR      61  57  88 CALM      29.75R
ORR            FAIR      64  57  77 CALM      29.72R
COOK           FAIR      64  61  88 CALM      29.75R
WALKER         FAIR      65  57  73 CALM      29.75R
$$
MNZ012-019>021-037-270400-
   Northeast Minnesota

CITY           SKY/WX    TMP DP  RH WIND       PRES   REMARKS
DULUTH         FAIR      60  55  83 E7        29.76R
ELY            FAIR      66  57  72 CALM      29.75R
HIBBING        FAIR      62  56  80 CALM      29.74R
EVELETH        FAIR      64  57  77 CALM      29.76R
DULUTH HARBOR  CLOUDY    48  46  93 E3        29.78R FOG
TWO HARBORS    FAIR      57  54  88 N3        29.75R
SILVER BAY     FAIR      57  55  94 CALM      29.76R
GRAND MARAIS     N/A     43  40  89 CALM      29.74R
G MARAIS ARPRT FAIR      57  54  88 CALM      29.78S FOG
$$
MNZ029>031-032-039>041-046>048-054>057-064-270400-
   West Central Minnesota

CITY           SKY/WX    TMP DP  RH WIND       PRES   REMARKS
FERGUS FALLS   FAIR      81  52  36 NE3       29.68R
WHEATON        CLOUDY    81  46  30 CALM      29.74R
MORRIS         CLEAR     82  46  28 CALM      29.74R
ALEXANDRIA     FAIR      75  53  46 CALM      29.77R
ELBOW LAKE     FAIR      75  61  61 CALM      29.74R
WADENA         FAIR      70  57  64 CALM      29.75R
GLENWOOD       FAIR      79  54  41 CALM      29.77R
APPLETON       CLEAR     81  54  39 S5        29.73R
BENSON         CLEAR     75  52  43 CALM      29.76R
ORTONVILLE     CLEAR     81  52  36 S5        29.74R
MADISON        CLEAR     81  57  44 CALM      29.75R
WILLMAR        FAIR      77  52  41 CALM      29.77R
$$
MNZ033>034-036-042>043-049>051-058-059-270400-
   Central Minnesota

CITY           SKY/WX    TMP DP  RH WIND       PRES   REMARKS
ST CLOUD       FAIR      71  54  54 CALM      29.73R
SAUK CENTRE    FAIR      72  56  57 CALM      29.76R
PAYNESVILLE    FAIR      71  60  67 CALM      29.76R
AITKIN         FAIR      61  55  82 CALM      29.74R
PINE RIVER     FAIR      63  54  72 CALM      29.78R
BRAINERD       FAIR      71  58  63 CALM      29.74R
STAPLES        FAIR      68  52  56 CALM      29.75R
LONG PRAIRIE   FAIR      70  55  60 CALM      29.76R
LITTLE FALLS   FAIR      70  55  60 CALM      29.75R
LITCHFIELD     FAIR      75  55  50 CALM      29.76R
BUFFALO        FAIR      73  54  50 CALM      29.74R
MAPLE LAKE     FAIR      69  59  69 CALM      29.75R
HUTCHINSON     FAIR      75  62  65 CALM      29.76R
$$
MNZ037-044-045-052-053-270400-
   East Central Minnesota

CITY           SKY/WX    TMP DP  RH WIND       PRES   REMARKS
PRINCETON      FAIR      70  55  60 CALM      29.74R
MORA           FAIR      64  59  82 CALM      29.75R
CAMBRIDGE      FAIR      75  55  50 CALM      29.73S
RUSH CITY      FAIR      67  56  66 CALM      29.73R
MOOSE LAKE     CLOUDY    61  52  72 NE5       29.74R
HINCKLEY       FAIR      64  63  94 CALM      29.74R
CLOQUET        FAIR      57  52  82 SE3       29.77R
MCGREGOR       FAIR      66  55  68 CALM      29.75R
$$
MNZ071>073-080-081-089-090-097-098-270400-
   Southwest Minnesota

CITY           SKY/WX    TMP DP  RH WIND       PRES   REMARKS
MONTEVIDEO     CLEAR     79  46  31 W3        29.75R
CANBY          CLEAR     75  62  62 CALM      29.77R
MARSHALL       CLEAR     80  56  43 NW3       29.77R
REDWOOD FALLS  CLEAR     81  55  40 W5        29.75R
OLIVIA         CLEAR     77  54  44 CALM      29.75R
PIPESTONE      CLEAR     81  52  36 E3        29.80R
WINDOM         CLEAR     79  52  38 CALM      29.78R
WORTHINGTON    CLEAR     75  55  49 CALM      29.80R
JACKSON        CLEAR     75  55  50 CALM      29.80R
TRACY          CLEAR     77  53  44 SW3       29.77R
SLAYTON        CLEAR     79  48  34 CALM      29.80R
$$
MNZ065>067-074>077-082>085-091>093-270400-
   South Central Minnesota

CITY           SKY/WX    TMP DP  RH WIND       PRES   REMARKS
MANKATO        FAIR      80  56  43 CALM      29.75R
NEW ULM        CLEAR     81  46  30 W5        29.74R
ST JAMES       CLEAR     75  55  50 CALM      29.77R
FAIRMONT       CLEAR     77  52  41 CALM      29.77R
GLENCOE        FAIR      79  58  48 CALM      29.74R
FARIBAULT      FAIR      73  63  68 CALM      29.75R
OWATONNA       FAIR      75  61  60 SE3       29.76R
WASECA         FAIR      72  54  53 E5        29.77R
ALBERT LEA     FAIR      77  55  47 CALM      29.77R
$$
MNZ078>079-086>088-094>096-270400-
   Southeast Minnesota

CITY           SKY/WX    TMP DP  RH WIND       PRES   REMARKS
ROCHESTER      FAIR      81  60  48 SE3       29.77R
RED WING       FAIR      72  55  56 CALM      29.72R
STANTON        FAIR      73  64  73 CALM      29.73R
DODGE CENTER   FAIR      75  61  60 CALM      29.78R
WINONA         FAIR      73  66  78 CALM      29.74R
AUSTIN         FAIR      79  57  47 CALM      29.76R
PRESTON        FAIR      75  62  62 S5        29.78R
$$
ABBREVIATIONS USED IN REMARKS
   TC - TEMPERATURES IN CELSIUS
  WCI - WIND CHILL INDEX
   HX - HEAT INDEX
  VSB - VISIBILITY
$$




USA.gov is the U.S. government's official web portal to all federal, state and local government web resources and services.